Location: Camp at the Woods
(43.2055°N, 93.0905°W)
Time: 10:58:49
(UTC+00:00)

Cosmos 1943 - Pass Details

Date: 05 December 2023
Orbit: 831 x 850 km, 71.0° (Epoch: 21 February)

Event Time Altitude Azimuth Distance (km) Brightness Sun altitude
Rises 23:40:55 0° 335° (NNW) 3,391 6.4 -11.3°
Reaches altitude 10° 23:43:22 10° 337° (NNW) 2,455 5.7 -11.7°
Maximum altitude 23:49:01 81° 66° (ENE) 854 3.1 -12.7°
Drops below altitude 10° 23:54:39 10° 153° (SSE) 2,453 5.5 -13.7°
Sets 23:57:06 0° 154° (SSE) 3,387 6.3 -14.1°
